TheGetRank SiteMap Page 4861
Home 4811 4812 4813 4814 4815 4816 4817 4818 4819 4820 4821 4822 4823 4824 4825 4826 4827 4828 4829 4830 4831 4832 4833 4834 4835 4836 4837 4838 4839 4840 4841 4842 4843 4844 4845 4846 4847 4848 4849 4850 4851 4852 4853 4854 4855 4856 4857 4858 4859 4860 4861 4862 4863 4864 4865 4866 4867 4868 4869 4870 4871 4872 4873 4874 4875 4876 4877 4878 4879 4880 4881 4882 4883 4884 4885 4886 4887 4888 4889 4890 4891 4892 4893 4894 4895 4896 4897 4898 4899 4900 4901 4902 4903 4904 4905 4906 4907 4908 4909 4910 4911
S.NO. Website Pagerank Alexa Rank Last Updated
4860000 brygblog.dk 0 No Rank 2011-12-09 19:20:13
4860001 htcincrediblescreenprotector.com 0 No Rank 2011-12-09 19:20:15
4860002 bsbleasing.com 0 7009455 2011-12-09 19:20:19
4860003 commission-central.spirooh.com 0 1594373 2011-12-09 19:20:21
4860004 bstimmt.net 0 No Rank 2011-12-09 19:20:27
4860005 btlegal.ca 0 No Rank 2011-12-09 19:20:27
4860006 ideasmatter.com 0 25403439 2011-12-09 19:20:28
4860007 implantdentistpunjab.com 0 No Rank 2011-12-09 19:20:29
4860008 btwstudio.hr 0 5955710 2011-12-09 19:20:34
4860009 buckarooblingboutique.com 0 21426691 2011-12-09 19:20:37
4860010 btpp.ru 0 27006398 2011-12-09 19:20:39
4860011 budafire.org 0 No Rank 2011-12-09 19:20:41
4860012 zsazsassite.twaded.com 0 3252363 2011-12-09 19:20:42
4860013 budgetinnjp.com 0 2002207 2011-12-09 19:20:46
4860014 budgetlawnsvc.com 0 No Rank 2011-12-09 19:20:46
4860015 internationaldecoratives.com 0 14255495 2011-12-09 19:20:49
4860016 buechler-verlag.ch 0 No Rank 2011-12-09 19:20:50
4860017 budlightlimesurfseries.com 0 4181756 2011-12-09 19:20:50
4860018 indiaartfair.in 0 968124 2011-12-09 19:20:52
4860019 bugfighting.com 0 11841002 2011-12-09 19:20:53
4860020 buick38.hageblad.se 0 No Rank 2011-12-09 19:20:58
4860021 internationalsportscenter.com 0 10575127 2011-12-09 19:21:01
4860022 builtbylonestar.com 0 No Rank 2011-12-09 19:21:01
4860023 khulnaview.com 0 16522321 2011-12-09 19:21:03
4860024 bundrenlaw.com 0 24975463 2011-12-09 19:21:05
4860025 insideboces.monroe.edu 0 74572 2011-12-09 19:21:08
4860026 inwolverhampton.com 0 25343788 2011-12-09 19:21:08
4860027 bunnyside.com 0 4449158 2011-12-09 19:21:10
4860028 kia-concord.bamper.org 0 4646357 2011-12-09 19:21:11
4860029 buraphagolfthailnd.com 0 No Rank 2011-12-09 19:21:13
4860030 nanrenmeng.com 0 2771432 2011-12-09 19:21:13
4860031 burgazbeton.com.tr 0 No Rank 2011-12-09 19:21:14
4860032 jobs.undp.org.lb 0 1410971 2011-12-09 19:21:15
4860033 business-mentor.com 0 No Rank 2011-12-09 19:21:17
4860034 intranet.bcsd.org 0 2271759 2011-12-09 19:21:19
4860035 businessinkosovo.com 0 8726321 2011-12-09 19:21:22
4860036 busterssouthernbbq.com 0 10175213 2011-12-09 19:21:31
4860037 jeanpetersbaker.com 0 No Rank 2011-12-09 19:21:32
4860038 bushidokarateclub.com 0 No Rank 2011-12-09 19:21:33
4860039 butternutfarmbandb.com 0 12275121 2011-12-09 19:21:36
4860040 jackssons.com 0 9310499 2011-12-09 19:21:37
4860041 buycheaptool.com 0 No Rank 2011-12-09 19:21:40
4860042 buynuskinproducts.com 0 No Rank 2011-12-09 19:21:46
4860043 buyplussizelingerie.net 0 22208983 2011-12-09 19:21:50
4860044 buypoolsupplies.com 0 22754530 2011-12-09 19:21:51
4860045 jerecuaro.pueblox.com 0 No Rank 2011-12-09 19:21:52
4860046 jltee.com 0 No Rank 2011-12-09 19:21:52
4860047 buytippecanoehomes.com 0 No Rank 2011-12-09 19:21:52
4860048 buzzdesign.net 0 No Rank 2011-12-09 19:21:53
4860049 buzzworthysf.com 0 No Rank 2011-12-09 19:21:56
4860050 bvillesharks.org 0 No Rank 2011-12-09 19:21:58
4860051 c-stages.com 0 No Rank 2011-12-09 19:22:02
4860052 c21dorsey.com 0 No Rank 2011-12-09 19:22:10
4860053 bygmesteren.dk 0 No Rank 2011-12-09 19:22:13
4860054 c2e2.net 0 No Rank 2011-12-09 19:22:14
4860055 c3e3.com 0 18213682 2011-12-09 19:22:17
4860056 jobsinhartford.com 0 No Rank 2011-12-09 19:22:21
4860057 cadcentric.com 0 No Rank 2011-12-09 19:22:25
4860058 cadencecomicart.com 0 2417189 2011-12-09 19:22:26
4860059 cadyphoto.com 0 No Rank 2011-12-09 19:22:28
4860060 portal.undp.org.lb 0 1410971 2011-12-09 19:22:28
4860061 cafeaulaitcoffee.com 0 16900471 2011-12-09 19:22:32
4860062 cafediva.com 0 17987939 2011-12-09 19:22:34
4860063 cajetcharter.com 0 8747139 2011-12-09 19:22:40
4860064 caimileon.com 0 No Rank 2011-12-09 19:22:40
4860065 calabriarealty.ru 0 16826156 2011-12-09 19:22:46
4860066 calafatus.hr 0 No Rank 2011-12-09 19:22:47
4860067 calcil.com 0 No Rank 2011-12-09 19:22:50
4860068 calgarycleaning.com 0 No Rank 2011-12-09 19:22:51
4860069 portablegpscheap.com 0 No Rank 2011-12-09 19:22:57
4860070 caliperenergy.com 0 No Rank 2011-12-09 19:22:57
4860071 jobsinmanitowoc.com 0 20524602 2011-12-09 19:23:00
4860072 calimligayrimenkul.com 0 No Rank 2011-12-09 19:23:02
4860073 homepager.tripod.spirooh.com 0 1594373 2011-12-09 19:23:04
4860074 campbellbrothersinc.com 0 No Rank 2011-12-09 19:23:06
4860075 campcomo.com 0 No Rank 2011-12-09 19:23:10
4860076 camtrader.org 0 No Rank 2011-12-09 19:23:18
4860077 canaanonline.org 0 No Rank 2011-12-09 19:23:18
4860078 extranet.undp.org.lb 0 1410971 2011-12-09 19:23:19
4860079 canadasouthern.com 0 4191855 2011-12-09 19:23:22
4860080 kursk-hosting.abcname.net 0 393928 2011-12-09 19:23:22
4860081 canadarealestate.net 0 23662513 2011-12-09 19:23:23
4860082 kidssummerlunch.org 0 No Rank 2011-12-09 19:23:27
4860083 canadiancupolas.com 0 9864325 2011-12-09 19:23:27
4860084 canadian-rxpills.com 0 27413332 2011-12-09 19:23:28
4860085 canadiantiregasbar.net 0 No Rank 2011-12-09 19:23:32
4860086 keenanbr.com 0 No Rank 2011-12-09 19:23:32
4860087 canbystorage.com 0 No Rank 2011-12-09 19:23:34
4860088 kyotojap.com 0 21021402 2011-12-09 19:23:35
4860089 legacy.futuresource.quote.com 0 22522 2011-12-09 19:23:38
4860090 candacegronekphotography.com 0 No Rank 2011-12-09 19:23:39
4860091 candaseries.com 0 6647219 2011-12-09 19:23:43
4860092 canterburyparkwinnipeg.ca 0 19519430 2011-12-09 19:23:51
4860093 m.raintreehotels.com 0 542164 2011-12-09 19:23:53
4860094 cantonbaptist.org 0 7141021 2011-12-09 19:23:54
4860095 macphersonbuilders.com 0 25570767 2011-12-09 19:23:54
4860096 dayi-archi.myweb.pkv-private-krankenversicherungen.de 0 17476947 2011-12-09 19:23:57
4860097 maldonadoforcongress.com 0 6374943 2011-12-09 19:23:57
4860098 canveysunbedhire.com 0 No Rank 2011-12-09 19:23:58
4860099 stsolar.net 0 No Rank 2011-12-09 19:24:00
4860100 mashems.com 0 7511921 2011-12-09 19:24:03
4860101 canyoucanoeband.com 0 No Rank 2011-12-09 19:24:05
4860102 marketstreetpizza.com 0 16499597 2011-12-09 19:24:06
4860103 capetownadvertisingphotographer.com 0 No Rank 2011-12-09 19:24:06
4860104 7braceletcharms7.wikispaces.com 0 1330 2011-12-09 19:24:10
4860105 capitolcharlotte.com 0 3895248 2011-12-09 19:24:11
4860106 frai77.com 0 No Rank 2011-12-09 19:24:16
4860107 mcclurerealty.net 0 16019815 2011-12-09 19:24:16
4860108 captblack.com 0 No Rank 2011-12-09 19:24:19
4860109 captilco.com 0 No Rank 2011-12-09 19:24:19
4860110 capturefactory.com 0 No Rank 2011-12-09 19:24:23
4860111 carabowling.org 0 No Rank 2011-12-09 19:24:23
4860112 carasmussen.com 0 No Rank 2011-12-09 19:24:27
4860113 caratcache.com 0 688165 2011-12-09 19:24:29
4860114 cardmagic.info 0 23991141 2011-12-09 19:24:29
4860115 carleplacegaragedoor.com 0 No Rank 2011-12-09 19:24:31
4860116 militarystim.com 0 No Rank 2011-12-09 19:24:33
4860117 carlga.com 0 No Rank 2011-12-09 19:24:35
4860118 carlweathersby.org 0 No Rank 2011-12-09 19:24:36
4860119 minibussales.co.uk 0 No Rank 2011-12-09 19:24:37
4860120 mkvv32.com 0 No Rank 2011-12-09 19:24:37
4860121 carnivorecology.free.fr 0 No Rank 2011-12-09 19:24:39
4860122 carolinasamara.com 0 18927392 2011-12-09 19:24:40
4860123 missinnegreenhouse.com 0 No Rank 2011-12-09 19:24:40
4860124 carowindsearlyyears.com 0 12969436 2011-12-09 19:24:42
4860125 carpediemranch.com 0 No Rank 2011-12-09 19:24:44
4860126 carpenterjobs.org 0 16882746 2011-12-09 19:24:46
4860127 carpentershammer.com 0 No Rank 2011-12-09 19:24:47
4860128 mobile.quote.com 0 22522 2011-12-09 19:24:47
4860129 carproscredit.com 0 No Rank 2011-12-09 19:24:52
4860130 carpinteriadermatology.com 0 No Rank 2011-12-09 19:24:53
4860131 myveteran.net 0 No Rank 2011-12-09 19:24:55
4860132 mrlgold.com 0 No Rank 2011-12-09 19:24:55
4860133 carringtonlondonbeds.com 0 No Rank 2011-12-09 19:24:55
4860134 cartergoodrich.com 0 12161969 2011-12-09 19:24:56
4860135 usa-coolcatcasino.com 0 13440700 2011-12-09 19:24:56
4860136 cartilade.net 0 13125472 2011-12-09 19:24:58
4860137 casacuomo.com.ar 0 No Rank 2011-12-09 19:25:00
4860138 myvoteshouldcount.com 0 No Rank 2011-12-09 19:25:01
4860139 casasaladita.com 0 24073717 2011-12-09 19:25:03
4860140 casanova.com.pl 0 22636552 2011-12-09 19:25:04
4860141 casbay.com 0 No Rank 2011-12-09 19:25:09
4860142 caseybritt.com 0 3219636 2011-12-09 19:25:13
4860143 casknkeg.com 0 No Rank 2011-12-09 19:25:14
4860144 newage.in 0 2356037 2011-12-09 19:25:14
4860145 caspolcare.com 0 20391963 2011-12-09 19:25:17
4860146 castba.com 0 No Rank 2011-12-09 19:25:20
4860147 swingarmcurtainrod.qdrllmarbleruns.com 0 No Rank 2011-12-09 19:25:21
4860148 castlewoodfdn.org 0 No Rank 2011-12-09 19:25:23
4860149 pat4florissant.com 0 No Rank 2011-12-09 19:25:23
4860150 pcsupport247.net 0 9719736 2011-12-09 19:25:30
4860151 fuel-filter-boguslav.avtosklad.net 0 1818812 2011-12-09 19:25:33
4860152 plexiglasimages.com 0 No Rank 2011-12-09 19:25:33
4860153 catchthelightphotography.com 0 No Rank 2011-12-09 19:25:34
4860154 cat3media.com 0 No Rank 2011-12-09 19:25:36
4860155 catcomtec.com 0 5987376 2011-12-09 19:25:37
4860156 catech.gr 0 5626482 2011-12-09 19:25:41
4860157 cateringmaaltijd.nl 0 No Rank 2011-12-09 19:25:45
4860158 catfoodcoupons.net 0 No Rank 2011-12-09 19:25:45
4860159 catherineajones.com 0 No Rank 2011-12-09 19:25:48
4860160 poleworkshopdirect.co.uk 0 7896739 2011-12-09 19:25:48
4860161 catzsports.com 0 936388 2011-12-09 19:25:52
4860162 catstyres.com 0 No Rank 2011-12-09 19:25:52
4860163 prismgroup.co.in 0 13433992 2011-12-09 19:25:55
4860164 qfsloans.com 0 No Rank 2011-12-09 19:25:59
4860165 caymansark.com 0 No Rank 2011-12-09 19:26:00
4860166 cayandcarlyhomes.com 0 No Rank 2011-12-09 19:26:02
4860167 cbcmiddleboro.org 0 No Rank 2011-12-09 19:26:06
4860168 dom.kg 0 No Rank 2011-12-09 19:26:07
4860169 redalis.net 0 11203902 2011-12-09 19:26:10
4860170 cbssystems.com 0 7652100 2011-12-09 19:26:10
4860171 cbspartners.be 0 17317183 2011-12-09 19:26:11
4860172 renewapplianceco.com 0 No Rank 2011-12-09 19:26:12
4860173 thka.jp 0 2261000 2011-12-09 19:26:13
4860174 royalplumbingia.com 0 No Rank 2011-12-09 19:26:16
4860175 ccgathering.net 0 17020711 2011-12-09 19:26:18
4860176 sarki.alternatifim.com 0 9125 2011-12-09 19:26:23
4860177 rworldcouriers.com 0 No Rank 2011-12-09 19:26:25
4860178 siir.alternatifim.com 0 9125 2011-12-09 19:26:28
4860179 reimo.com 0 257871 2011-12-09 19:26:28
4860180 ludyc.com 0 No Rank 2011-12-09 19:26:31
4860181 bicyclestorageshed.qdrllmarbleruns.com 0 No Rank 2011-12-09 19:26:33
4860182 thelawmanchronicles.blogspot.com 0 No Rank 2011-12-09 19:26:36
4860183 ccshirtworks.com 0 No Rank 2011-12-09 19:26:38
4860184 thinkdeeper.com 0 25468581 2011-12-09 19:26:46
4860185 ladadc.ru 0 No Rank 2011-12-09 19:26:51
4860186 webutiles.citeglobe.com 0 4985951 2011-12-09 19:26:51
4860187 ccmpartners.org 0 No Rank 2011-12-09 19:26:52
4860188 ceviri.alternatifim.com 0 9125 2011-12-09 19:26:56
4860189 ystk.com.nu 0 No Rank 2011-12-09 19:26:58
4860190 cdncrew.com 0 9443211 2011-12-09 19:26:58
4860191 dytt.com.nu 0 No Rank 2011-12-09 19:26:59
4860192 cdrecyclingcenter.com 0 17313835 2011-12-09 19:27:00
4860193 vaginas489.chat2sexs.info 0 No Rank 2011-12-09 19:27:03
4860194 dryerrackforclothes.qdrllmarbleruns.com 0 No Rank 2011-12-09 19:27:07
4860195 cebupacificairpromo.net 0 20056256 2011-12-09 19:27:08
4860196 cedarhillsstandardschnauzers.com 0 No Rank 2011-12-09 19:27:10
4860197 ceiengineers.com 0 18756605 2011-12-09 19:27:14
4860198 forum.alternatifim.com 0 9125 2011-12-09 19:27:15
4860199 cedarlakedance.com 0 4740541 2011-12-09 19:27:15
4860200 je900juiceextractor.qdrllmarbleruns.com 0 No Rank 2011-12-09 19:27:16
4860201 maps.spirooh.com 0 1594373 2011-12-09 19:27:17
4860202 halloween.wkshops.com 0 22958214 2011-12-09 19:27:19
4860203 ceii-cdc.org 0 21427936 2011-12-09 19:27:21
4860204 cellphysiology.org 0 No Rank 2011-12-09 19:27:22
4860205 whymart.com 0 No Rank 2011-12-09 19:27:23
4860206 centerbudo.com 0 No Rank 2011-12-09 19:27:25
4860207 centervilleclimatecontrolstorage.com 0 No Rank 2011-12-09 19:27:28
4860208 centralfloridainsurance.net 0 No Rank 2011-12-09 19:27:30
4860209 centralohioemmaus.org 0 10108885 2011-12-09 19:27:32
4860210 thaishop.eu 0 10138452 2011-12-09 19:27:33
4860211 centrica.no 0 6158012 2011-12-09 19:27:34
4860212 thanhthuyk.wap.sh 0 55778 2011-12-09 19:27:35
4860213 bdkk.com.nu 0 No Rank 2011-12-09 19:27:37
4860214 century21roserealty.com 0 No Rank 2011-12-09 19:27:38
4860215 centrumprasowe.net 0 6464638 2011-12-09 19:27:38
4860216 thkoehler.de 0 1040019 2011-12-09 19:27:40
4860217 ceptik-dom.ru 0 11630174 2011-12-09 19:27:42
4860218 yf-metal.com 0 6233406 2011-12-09 19:27:45
4860219 cestazeny-brno.indigenous.cz 0 12327128 2011-12-09 19:27:46
4860220 ceritaphoto.com 0 No Rank 2011-12-09 19:27:48
4860221 tilvitnun.is 0 8356922 2011-12-09 19:27:50
4860222 irkutsk.povodok.info 0 No Rank 2011-12-09 19:27:51
4860223 cevizli.com.tr 0 24324252 2011-12-09 19:27:52
4860224 ceylonkennelclub.com 0 5131534 2011-12-09 19:27:53
4860225 cfgaynor.com 0 13947137 2011-12-09 19:27:57
4860226 salut.com.kg 0 4366482 2011-12-09 19:27:58
4860227 championsofthemind.com 0 No Rank 2011-12-09 19:28:03
4860228 jennylindchangingtable.qdrllmarbleruns.com 0 No Rank 2011-12-09 19:28:06
4860229 hollywoodimages.info 0 20348476 2011-12-09 19:28:07
4860230 champsdc.org 0 2888755 2011-12-09 19:28:08
4860231 8pandorastylebeads9.blog.com 0 No Rank 2011-12-09 19:28:10
4860232 chantalheart.com 0 No Rank 2011-12-09 19:28:11
4860233 tamaliver.jp 0 193844 2011-12-09 19:28:12
4860234 chapelhillchristianschool.org 0 10774624 2011-12-09 19:28:15
4860235 chaouendarcom.com 0 No Rank 2011-12-09 19:28:15
4860236 suplementy.edu.pl 0 No Rank 2011-12-09 19:28:15
4860237 ysbb.com.nu 0 No Rank 2011-12-09 19:28:16
4860238 horsemanuwear.com 0 No Rank 2011-12-09 19:28:17
4860239 chapfirm.com 0 No Rank 2011-12-09 19:28:19
4860240 salmevald.ee 0 No Rank 2011-12-09 19:28:21
4860241 chapmanengineering.com 0 No Rank 2011-12-09 19:28:21
4860242 chapmanusedcar.com 0 No Rank 2011-12-09 19:28:24
4860243 drive105.net 0 15844218 2011-12-09 19:28:24
4860244 chariotsofwire.com 0 No Rank 2011-12-09 19:28:25
4860245 charitypickupservice.com 0 6293383 2011-12-09 19:28:27
4860246 saderbank.com 0 2683359 2011-12-09 19:28:29
4860247 horseshoeset.net 0 No Rank 2011-12-09 19:28:30
4860248 thyboroen.com 0 6712760 2011-12-09 19:28:30
4860249 charlespace.com 0 No Rank 2011-12-09 19:28:30
4860250 charitytourband.com 0 25812866 2011-12-09 19:28:33
4860251 charlienewton.com 0 17701573 2011-12-09 19:28:33
4860252 charlotte-roofing.com 0 No Rank 2011-12-09 19:28:37
4860253 hotairpopcornpoppershop.net 0 No Rank 2011-12-09 19:28:38
4860254 charlotteswebart.com 0 No Rank 2011-12-09 19:28:41
4860255 agri-bank.com 0 44551 2011-12-09 19:28:42
4860256 edbi-iran.com 0 27191429 2011-12-09 19:28:43
4860257 chaseware.com 0 No Rank 2011-12-09 19:28:44
4860258 chaslaine.com 0 No Rank 2011-12-09 19:28:46
4860259 hqcumber.com 0 No Rank 2011-12-09 19:28:47
4860260 chasseinc.com 0 No Rank 2011-12-09 19:28:48
4860261 chateautebeauwinery.com 0 No Rank 2011-12-09 19:28:49
4860262 teknikweb.net 0 375973 2011-12-09 19:28:50
4860263 weinsberg.com 0 1769029 2011-12-09 19:28:51
4860264 chavesefechaduras.com 0 No Rank 2011-12-09 19:28:53
4860265 mincor.com.au 0 2153322 2011-12-09 19:29:02
4860266 cheapdigitalphotoframes.info 0 No Rank 2011-12-09 19:29:04
4860267 checkmarktransmissions.com 0 No Rank 2011-12-09 19:29:04
4860268 checkpointcom.com 0 No Rank 2011-12-09 19:29:10
4860269 bank-refah.com 0 No Rank 2011-12-09 19:29:12
4860270 blog.spirooh.com 0 1594373 2011-12-09 19:29:12
4860271 store1.spirooh.com 0 1594373 2011-12-09 19:29:13
4860272 icons.dvdesign.com 0 2492419 2011-12-09 19:29:15
4860273 linkcondom.com 0 25273781 2011-12-09 19:29:18
4860274 chemone.eu 0 21793120 2011-12-09 19:29:22
4860275 chernobylaidireland.ie 0 No Rank 2011-12-09 19:29:22
4860276 chevillybad.com 0 No Rank 2011-12-09 19:29:26
4860277 chhayaenterprises.com 0 15743737 2011-12-09 19:29:29
4860278 roman-ionel-autonomo.org 0 No Rank 2011-12-09 19:29:30
4860279 cheryllichwell.com 0 No Rank 2011-12-09 19:29:30
4860280 icecleats.info 0 No Rank 2011-12-09 19:29:31
4860281 chicken-coupe.com 0 No Rank 2011-12-09 19:29:40
4860282 childrensfoodguide.com 0 No Rank 2011-12-09 19:29:40
4860283 chinabagmaking.com 0 9262794 2011-12-09 19:29:44
4860284 igotgas.com 0 22824598 2011-12-09 19:29:45
4860285 chinaedon.com 0 No Rank 2011-12-09 19:29:49
4860286 lawnet.ie 0 1062721 2011-12-09 19:29:50
4860287 chinakent.com 0 No Rank 2011-12-09 19:29:52
4860288 takrawthai.com 0 19256873 2011-12-09 19:29:53
4860289 imaginewurks.com 0 10346797 2011-12-09 19:29:54
4860290 chinaphilharmonic.com 0 No Rank 2011-12-09 19:29:54
4860291 indicators.trading-the-forex.net 0 6355419 2011-12-09 19:29:59
4860292 chipsncracks.com 0 No Rank 2011-12-09 19:30:00
4860293 in1.donationpixel.org 0 10221992 2011-12-09 19:30:04
4860294 chiropracticawarenesscouncil.org 0 2989727 2011-12-09 19:30:07
4860295 thaishop.in.th 0 359394 2011-12-09 19:30:07
4860296 slavutich.urua.info 0 8218494 2011-12-09 19:30:08
4860297 choicefinancialservicespa.com 0 No Rank 2011-12-09 19:30:10
4860298 chocz.bip.net.pl 0 418573 2011-12-09 19:30:12
4860299 infusionesmedicinales.com 0 3551429 2011-12-09 19:30:14
4860300 chosenphotography.com 0 No Rank 2011-12-09 19:30:14
4860301 iphonepaysaber.com 0 No Rank 2011-12-09 19:30:20
4860302 christiescollectibles.com 0 No Rank 2011-12-09 19:30:23
4860303 news.pkv-vergleicher.com 0 17476948 2011-12-09 19:30:23
4860304 vocalia2009.com 0 No Rank 2011-12-09 19:30:24
4860305 christmasbonsaitrees.com 0 24102364 2011-12-09 19:30:26
4860306 christinesk9treats.com 0 No Rank 2011-12-09 19:30:26
4860307 actionlight.ch 0 No Rank 2011-12-09 19:30:26
4860308 christmasshoppetx.com 0 23238336 2011-12-09 19:30:29
4860309 insuranceadvice101.com 0 3998043 2011-12-09 19:30:30
4860310 itunes99.com 0 No Rank 2011-12-09 19:30:32
4860311 christophepoizat.com 0 No Rank 2011-12-09 19:30:33
4860312 christopherjw.com 0 No Rank 2011-12-09 19:30:34
4860313 christophermeades.com 0 No Rank 2011-12-09 19:30:36
4860314 iw0rld.net 0 22715213 2011-12-09 19:30:37
4860315 depress.6te.net 0 No Rank 2011-12-09 19:30:38
4860316 chronicwellnesscoaching.com 0 1860971 2011-12-09 19:30:42
4860317 churchzone.net 0 No Rank 2011-12-09 19:30:45
4860318 churchofchristwestside.com 0 No Rank 2011-12-09 19:30:46
4860319 music.spirooh.com 0 1594373 2011-12-09 19:30:46
4860320 jimmydillon.org 0 No Rank 2011-12-09 19:30:47
4860321 ciaraenterprisesllc.com 0 No Rank 2011-12-09 19:30:48
4860322 spencerinfo.net 0 5140436 2011-12-09 19:30:49
4860323 ciencomm.net 0 6087792 2011-12-09 19:30:50
4860324 earworms-mbt.de 0 No Rank 2011-12-09 19:30:50
4860325 cigarrollingevent.com 0 8863246 2011-12-09 19:30:51
4860326 jugos-curativos.com 0 1779866 2011-12-09 19:30:55
4860327 cinderellaatemydaughter.com 0 No Rank 2011-12-09 19:30:57
4860328 gulfside905.com 0 No Rank 2011-12-09 19:30:58
4860329 cindycampbell.net 0 No Rank 2011-12-09 19:31:01
4860330 privacybird.org 0 11919367 2011-12-09 19:31:03
4860331 kayakingfishing.org 0 No Rank 2011-12-09 19:31:08
4860332 cindykleinstuber.com 0 13549103 2011-12-09 19:31:09
4860333 ciphotography.com 0 18912259 2011-12-09 19:31:13
4860334 mini-cities.com 0 No Rank 2011-12-09 19:31:15
4860335 circusfreax.com 0 23512565 2011-12-09 19:31:16
4860336 ruedumarche.com 0 No Rank 2011-12-09 19:31:18
4860337 citichotel.net 0 No Rank 2011-12-09 19:31:18
4860338 citizensstatebank-nd.com 0 No Rank 2011-12-09 19:31:21
4860339 cimeil.com 0 No Rank 2011-12-09 19:31:23
4860340 citycrashpad.com 0 3757186 2011-12-09 19:31:25
4860341 glentress.co.uk 0 No Rank 2011-12-09 19:31:28
4860342 cityforester.com 0 No Rank 2011-12-09 19:31:28
4860343 klip.alternatifim.com 0 9125 2011-12-09 19:31:32
4860344 cityoftempest.net 0 10215439 2011-12-09 19:31:33
4860345 civilwarraid.com 0 No Rank 2011-12-09 19:31:36
4860346 clarenbachwerk.de 0 15095601 2011-12-09 19:31:40
4860347 clarity.cz 0 No Rank 2011-12-09 19:31:40
4860348 lyrics.alternatifim.com 0 9125 2011-12-09 19:31:41
4860349 clarityaudiosystems.com 0 No Rank 2011-12-09 19:31:42
4860350 claritymm.com 0 13318415 2011-12-09 19:31:44
4860351 bowtiepower.com 0 19269559 2011-12-09 19:31:45
4860352 clarkpoultry.com 0 25473925 2011-12-09 19:31:48
4860353 clarksbullets.com 0 No Rank 2011-12-09 19:31:50
4860354 usahaonline.net 0 18136032 2011-12-09 19:31:51
4860355 classiccarssale.org 0 No Rank 2011-12-09 19:31:58
4860356 safetvision.net 0 3846021 2011-12-09 19:31:59
4860357 sandinstallations.com 0 No Rank 2011-12-09 19:32:02
4860358 classicremodeling.com 0 10850383 2011-12-09 19:32:04
4860359 classicsfurniturestudio.com 0 5387392 2011-12-09 19:32:04
4860360 onlineinfluence.com.au 0 973590 2011-12-09 19:32:05
4860361 savonix.com 0 6112556 2011-12-09 19:32:08
4860362 claudialva.com 0 No Rank 2011-12-09 19:32:10
4860363 ns320.abcname.net 0 393928 2011-12-09 19:32:10
4860364 schematronic.com 0 No Rank 2011-12-09 19:32:10
4860365 wpupioneers.com 0 3063438 2011-12-09 19:32:13
4860366 scopemedicallake.org 0 No Rank 2011-12-09 19:32:14
4860367 claymoreinn.com 0 No Rank 2011-12-09 19:32:16
4860368 clbutcher.com 0 8197303 2011-12-09 19:32:16
4860369 scswarriors.com 0 No Rank 2011-12-09 19:32:22
4860370 aurigance.fr 0 17694345 2011-12-09 19:32:23
4860371 envisioninc.com 0 2526607 2011-12-09 19:32:24
4860372 sensualwhipping.com 0 6498198 2011-12-09 19:32:25
4860373 clc-coi.org 0 No Rank 2011-12-09 19:32:26
4860374 clc-english.com 0 No Rank 2011-12-09 19:32:26
4860375 reidenbaugh.com 0 No Rank 2011-12-09 19:32:27
4860376 clcinc.us 0 26018236 2011-12-09 19:32:29
4860377 shamanschoolireland.com 0 No Rank 2011-12-09 19:32:29
4860378 shescreative.com 0 No Rank 2011-12-09 19:32:31
4860379 shop.kidsareworthit.com 0 3556553 2011-12-09 19:32:33
4860380 cleaningservicesnewyork.com 0 No Rank 2011-12-09 19:32:33
4860381 astrospider.com 0 9969136 2011-12-09 19:32:34
4860382 clever-copy.com 0 7406179 2011-12-09 19:32:38
4860383 shop.mymessymonkeys.com 0 17205011 2011-12-09 19:32:39
4860384 clevercanine.ca 0 10704323 2011-12-09 19:32:41
4860385 clgvoltaire.net 0 No Rank 2011-12-09 19:32:41
4860386 whowhere.spirooh.com 0 1594373 2011-12-09 19:32:44
4860387 clickerstar.com 0 No Rank 2011-12-09 19:32:45
4860388 signaturebistro.com 0 16902117 2011-12-09 19:32:45
4860389 clibran.com 0 No Rank 2011-12-09 19:32:45
4860390 choko-sorae.com 0 No Rank 2011-12-09 19:32:45
4860391 superscripte.de 0 236685 2011-12-09 19:32:48
4860392 cliffsideclimbing.net 0 No Rank 2011-12-09 19:32:49
4860393 clickingdesigns.com 0 No Rank 2011-12-09 19:32:49
4860394 shop.thepurebed.com 0 1823588 2011-12-09 19:32:49
4860395 site.billscanvas.com 0 No Rank 2011-12-09 19:32:51
4860396 climateactionplanning.com 0 No Rank 2011-12-09 19:32:53
4860397 climateofuncertainty.com 0 No Rank 2011-12-09 19:32:54
4860398 simmsandassociates.net 0 No Rank 2011-12-09 19:32:57
4860399 clintoncountyhistorical.org 0 5047516 2011-12-09 19:32:58
4860400 ghost-armor.com 0 676192 2011-12-09 19:33:00
4860401 adodenhaagtv.nl 0 No Rank 2011-12-09 19:33:05
4860402 siobhanwilcox.com 0 No Rank 2011-12-09 19:33:05
4860403 clubfitfitnesscenter.com 0 8408225 2011-12-09 19:33:06
4860404 infotechnika.uz 0 13764473 2011-12-09 19:33:08
4860405 clubweddingreceptions.net 0 No Rank 2011-12-09 19:33:09
4860406 max.spirooh.com 0 1594373 2011-12-09 19:33:09
4860407 specialdayzentertainment.com 0 20364083 2011-12-09 19:33:09
4860408 cm-photo.com 0 No Rank 2011-12-09 19:33:10
4860409 cn-pepm.com 0 No Rank 2011-12-09 19:33:15
4860410 ayurvedicureaforcheap.blogspot.com 0 No Rank 2011-12-09 19:33:15
4860411 extremecock.net 0 10375621 2011-12-09 19:33:15
4860412 strollerpowerjupiter.com 0 No Rank 2011-12-09 19:33:16
4860413 campustrade.com 0 No Rank 2011-12-09 19:33:17
4860414 cnarancay.com 0 No Rank 2011-12-09 19:33:18
4860415 piecesmetal.com 0 No Rank 2011-12-09 19:33:19
4860416 calpinyater.com 0 21247108 2011-12-09 19:33:20
4860417 cnatrainingprograms.net 0 21632963 2011-12-09 19:33:21
4860418 cnbestseller.com 0 6248755 2011-12-09 19:33:21
4860419 steidlepowdercoating.com 0 17816090 2011-12-09 19:33:22
4860420 zs-lubaczow.com 0 2272913 2011-12-09 19:33:23
4860421 cncpropertypreservation.com 0 No Rank 2011-12-09 19:33:24
4860422 sunnyskychildcare.com 0 No Rank 2011-12-09 19:33:26
4860423 vinylscratch.de 0 5121308 2011-12-09 19:33:27
4860424 autobiermans.nl 0 17915796 2011-12-09 19:33:28
4860425 usedcarlist.org 0 24472600 2011-12-09 19:33:29
4860426 xtremenails.com 0 22817117 2011-12-09 19:33:32
4860427 cohainc.org 0 No Rank 2011-12-09 19:33:32
4860428 doxierescue.com 0 4230351 2011-12-09 19:33:36
4860429 cojobaby.com 0 3395917 2011-12-09 19:33:37
4860430 siterip.net 0 No Rank 2011-12-09 19:33:37
4860431 etrouvetout.com 0 591000 2011-12-09 19:33:39
4860432 cross-plus-a.ru 0 1976116 2011-12-09 19:33:41
4860433 colbyjobs.com 0 No Rank 2011-12-09 19:33:44
4860434 suerybalandscapes.com 0 21941139 2011-12-09 19:33:48
4860435 2nduxbridge.org 0 No Rank 2011-12-09 19:33:48
4860436 colcab.co.za 0 16758289 2011-12-09 19:33:49
4860437 coldwave.com 0 3782806 2011-12-09 19:33:53
4860438 chat.mind.co.kr 0 No Rank 2011-12-09 19:33:55
4860439 mondorescue.org 0 1049173 2011-12-09 19:33:56
4860440 colegiosantodomingo.edu.co 0 No Rank 2011-12-09 19:33:58
4860441 inthemood.co.jp 0 No Rank 2011-12-09 19:33:59
4860442 coletasportsmensclub.com 0 No Rank 2011-12-09 19:34:00
4860443 gamingbliss.com 0 23187515 2011-12-09 19:34:02
4860444 schottenhost.de 0 No Rank 2011-12-09 19:34:02
4860445 colis-covoiturage.com 0 22142617 2011-12-09 19:34:03
4860446 sunsetgrills.com 0 No Rank 2011-12-09 19:34:05
4860447 collage-designs.com 0 No Rank 2011-12-09 19:34:06
4860448 jewelryarmoiresmirrored.qdrllmarbleruns.com 0 No Rank 2011-12-09 19:34:10
4860449 collier-ostrom.com 0 18964684 2011-12-09 19:34:11
4860450 tampabayfavorites.com 0 16692992 2011-12-09 19:34:11
4860451 collingtononline.com 0 No Rank 2011-12-09 19:34:14
4860452 collisiontechnologies.com 0 No Rank 2011-12-09 19:34:14
4860453 susiesestateslm.com 0 No Rank 2011-12-09 19:34:18
4860454 ro-schriften.de 0 No Rank 2011-12-09 19:34:23
4860455 ufrecycling.com 0 No Rank 2011-12-09 19:34:23
4860456 toyota-belta.avtosklad.net 0 1818812 2011-12-09 19:34:29
4860457 colonialbenefitservices.com 0 No Rank 2011-12-09 19:34:29
4860458 colorado-shih-tzu-breeder.com 0 No Rank 2011-12-09 19:34:30
4860459 maganiskolak.hu 0 19434058 2011-12-09 19:34:30
4860460 proxyhustler.de 0 5391012 2011-12-09 19:34:31
4860461 coloradobuildersguide.com 0 9800583 2011-12-09 19:34:34
4860462 muramoto-web.jp 0 No Rank 2011-12-09 19:34:35
4860463 iamwebsites.com 0 No Rank 2011-12-09 19:34:35
4860464 colorsbyzoe.com 0 16157341 2011-12-09 19:34:37
4860465 colourinfomedia.com 0 8795373 2011-12-09 19:34:37
4860466 columbiariversuzuki.com 0 No Rank 2011-12-09 19:34:42
4860467 kickstartmx.com 0 5117502 2011-12-09 19:34:43
4860468 scottbarbey.com 0 No Rank 2011-12-09 19:34:44
4860469 com-click-2-get-free.info 0 No Rank 2011-12-09 19:34:45
4860470 aoeogold.com 0 No Rank 2011-12-09 19:34:46
4860471 formula-1.co.il 0 1133897 2011-12-09 19:34:46
4860472 truuslations.nl 0 No Rank 2011-12-09 19:34:47
4860473 tartanacres.com 0 No Rank 2011-12-09 19:34:48
4860474 tobincpa.com 0 No Rank 2011-12-09 19:34:48
4860475 comenius.zsmonki.pl 0 1351743 2011-12-09 19:34:52
4860476 thecoasterstore.com 0 10149110 2011-12-09 19:34:53
4860477 comfortinncda.com 0 No Rank 2011-12-09 19:34:53
4860478 page-rank-10.de 0 2503708 2011-12-09 19:34:54
4860479 unfriend.us 0 No Rank 2011-12-09 19:34:57
4860480 avtechdigital.com 0 2332098 2011-12-09 19:35:00
4860481 communicationpractices.org 0 23791883 2011-12-09 19:35:02
4860482 joannekraft.com 0 11430951 2011-12-09 19:35:06
4860483 backcountrysecrets.com 0 4355783 2011-12-09 19:35:08
4860484 mollyhacker.com 0 8390231 2011-12-09 19:35:10
4860485 nicolebuwen.com 0 No Rank 2011-12-09 19:35:11
4860486 compareinternationalinsurance.com 0 No Rank 2011-12-09 19:35:11
4860487 thinkfree.co.jp 0 3179545 2011-12-09 19:35:15
4860488 completehomecaresupply.com 0 No Rank 2011-12-09 19:35:15
4860489 rosewoodinn.com 0 13034676 2011-12-09 19:35:18
4860490 completelivingconcepts.com 0 No Rank 2011-12-09 19:35:18
4860491 beyer-berlin.de 0 No Rank 2011-12-09 19:35:19
4860492 kk-infinity.com 0 No Rank 2011-12-09 19:35:22
4860493 computerindustryjobs.com 0 No Rank 2011-12-09 19:35:23
4860494 whymuhammad.com 0 2227385 2011-12-09 19:35:24
4860495 computernetworld.com 0 No Rank 2011-12-09 19:35:27
4860496 bdaprop.co.za 0 No Rank 2011-12-09 19:35:32
4860497 conceptwest.se 0 No Rank 2011-12-09 19:35:36
4860498 ruralmuse.co.uk 0 9530503 2011-12-09 19:35:36
4860499 bigfaketits.com 0 18707119 2011-12-09 19:35:37
4860500 concernandcare.org 0 No Rank 2011-12-09 19:35:38
4860501 beaconccipl.com 0 No Rank 2011-12-09 19:35:39
4860502 conciergemrc.com 0 No Rank 2011-12-09 19:35:42
4860503 bellsbridalsalon.com 0 No Rank 2011-12-09 19:35:46
4860504 confort-moderne.fr 0 2498945 2011-12-09 19:35:47
4860505 bamasurplus.com 0 19127671 2011-12-09 19:35:48
4860506 connectedss.com 0 23992603 2011-12-09 19:35:51
4860507 blakereynolds.net 0 No Rank 2011-12-09 19:35:51
4860508 isia-ottawa.com 0 No Rank 2011-12-09 19:35:52
4860509 commercetigers.com 0 No Rank 2011-12-09 19:35:52
4860510 itbuff.com.au 0 768999 2011-12-09 19:35:52
4860511 connielindsey.com 0 No Rank 2011-12-09 19:35:54
4860512 jpcomputing.com 0 No Rank 2011-12-09 19:35:55
4860513 niksud.narod.ru 0 No Rank 2011-12-09 19:35:56
4860514 hughbuckley.com 0 No Rank 2011-12-09 19:35:58
4860515 consciousageing.com 0 No Rank 2011-12-09 19:35:58
4860516 constipation-options.com 0 No Rank 2011-12-09 19:35:58
4860517 boppingbabies.co.uk 0 No Rank 2011-12-09 19:35:59
4860518 grafengroup.com 0 No Rank 2011-12-09 19:36:01
4860519 consulta-bg.com 0 No Rank 2011-12-09 19:36:03
4860520 yamatake-cp.com 0 No Rank 2011-12-09 19:36:04
4860521 constructionclerical.com 0 No Rank 2011-12-09 19:36:05
4860522 stardoll.pkv-private-krankenversicherungen.de 0 17476947 2011-12-09 19:36:06
4860523 blast1.site40.net 0 37235 2011-12-09 19:36:06
4860524 contactsandcompacts.com 0 21992044 2011-12-09 19:36:10
4860525 contemplativemusic.com 0 10208396 2011-12-09 19:36:11
4860526 healthynovascotians.com 0 2231867 2011-12-09 19:36:12
4860527 contextart.org 0 No Rank 2011-12-09 19:36:15
4860528 contractorssales.com 0 12347298 2011-12-09 19:36:16
4860529 appleipodboombox.3gtabletshop.com 0 6565751 2011-12-09 19:36:17
4860530 corryrubber.com 0 7779143 2011-12-09 19:36:20
4860531 convenientopportunities.com 0 No Rank 2011-12-09 19:36:21
4860532 stardoll.private-krankenversicherung-profis.de 0 17476954 2011-12-09 19:36:21
4860533 jens-doebel.com 0 No Rank 2011-12-09 19:36:22
4860534 cookinsurance.net 0 No Rank 2011-12-09 19:36:23
4860535 stfrancishs.com 0 No Rank 2011-12-09 19:36:26
4860536 macnightowl.com 0 27141812 2011-12-09 19:36:28
4860537 cool-carts.com 0 No Rank 2011-12-09 19:36:28
4860538 toonacademy.com 0 No Rank 2011-12-09 19:36:32
4860539 landpower.co.nz 0 8689829 2011-12-09 19:36:34
4860540 copiousiq.com 0 No Rank 2011-12-09 19:36:35
4860541 copiouslife.com 0 16983603 2011-12-09 19:36:39
4860542 parteegirls.org 0 No Rank 2011-12-09 19:36:41
4860543 copperartist.com 0 No Rank 2011-12-09 19:36:42
4860544 copperpot.info 0 No Rank 2011-12-09 19:36:46
4860545 copperpotrestaurant.com 0 No Rank 2011-12-09 19:36:49
4860546 coolrivercottages.com 0 No Rank 2011-12-09 19:36:49
4860547 djeholdings.com 0 No Rank 2011-12-09 19:36:49
4860548 benhgout.net.vn 0 5581640 2011-12-09 19:36:50
4860549 coral-springs-directory.info 0 15694326 2011-12-09 19:36:51
4860550 wais-racing.com 0 No Rank 2011-12-09 19:36:52
4860551 naklo.sr.gov.pl 0 120838 2011-12-09 19:36:56
4860552 coreleague.com 0 No Rank 2011-12-09 19:36:57
4860553 selecomlink.com 0 No Rank 2011-12-09 19:36:58
4860554 ns1689.abcname.net 0 393928 2011-12-09 19:36:58
4860555 stardoll.pkv-private-krankenversicherungen.com 0 17476946 2011-12-09 19:37:01
4860556 corica.lpnet.com.ar 0 No Rank 2011-12-09 19:37:01
4860557 corellascrystals.com 0 No Rank 2011-12-09 19:37:01
4860558 kokubo-oa.co.jp 0 No Rank 2011-12-09 19:37:07
4860559 coronaryarterycalciumscore.com 0 No Rank 2011-12-09 19:37:11
4860560 milfsextube.net 0 171255 2011-12-09 19:37:11
4860561 cybermondaycanoncamera.com 0 No Rank 2011-12-09 19:37:13
4860562 corlukultursanat.com 0 No Rank 2011-12-09 19:37:13
4860563 njrealjobs.com 0 4938244 2011-12-09 19:37:16
4860564 offertesky.blogspot.com 0 No Rank 2011-12-09 19:37:16
4860565 corporatecharitywatch.org 0 10909547 2011-12-09 19:37:16
4860566 casketflags.com 0 No Rank 2011-12-09 19:37:18
4860567 corrinbarnett.com 0 No Rank 2011-12-09 19:37:20
4860568 corradosinteriors.com 0 No Rank 2011-12-09 19:37:21
4860569 noortjelicht.nl 0 12668028 2011-12-09 19:37:22
4860570 cortesislandmotel.com 0 No Rank 2011-12-09 19:37:23
4860571 kirstenagilliam.superiordonuts.com 0 2981461 2011-12-09 19:37:23
4860572 rittmanmead.com 0 723551 2011-12-09 19:37:25
4860573 bigstarhost.com 0 1028610 2011-12-09 19:37:27
4860574 corvallisfallfestival.org 0 5027684 2011-12-09 19:37:27
4860575 kumamoto-fa.com 0 525471 2011-12-09 19:37:28
4860576 coscostar.com 0 No Rank 2011-12-09 19:37:29
4860577 graphologies.de 0 3765456 2011-12-09 19:37:30
4860578 universitycentreonline.com 0 6950272 2011-12-09 19:37:32
4860579 ladycamelot.net 0 7951776 2011-12-09 19:37:33
4860580 restoemploi.com 0 No Rank 2011-12-09 19:37:35
4860581 cosmopolitart.com 0 No Rank 2011-12-09 19:37:35
4860582 chirurgentag.de 0 11539888 2011-12-09 19:37:36
4860583 cossec-immobilier.com 0 8177826 2011-12-09 19:37:40
4860584 cobbdoctors.com 0 No Rank 2011-12-09 19:37:40
4860585 costaricanarchitects.com 0 22825399 2011-12-09 19:37:42
4860586 scalptrader.com 0 22883943 2011-12-09 19:37:44
4860587 old.med.private-krankenversicherung-profis.de 0 17476954 2011-12-09 19:37:44
4860588 costellostone.com 0 No Rank 2011-12-09 19:37:45
4860589 meublepeint.com 0 1756698 2011-12-09 19:37:49
4860590 ampliogroup.com 0 No Rank 2011-12-09 19:37:50
4860591 jaliencargo.com 0 No Rank 2011-12-09 19:37:53
4860592 socialmedia.org 0 282124 2011-12-09 19:37:58
4860593 cobbdoctors.org 0 No Rank 2011-12-09 19:38:01
4860594 cotton-properties.com 0 No Rank 2011-12-09 19:38:01
4860595 nystatearts.org 0 22100221 2011-12-09 19:38:03
4860596 katrin-raabe.de 0 No Rank 2011-12-09 19:38:03
4860597 cottagefineart.com 0 No Rank 2011-12-09 19:38:03
4860598 couleurs-papillons.com 0 21633544 2011-12-09 19:38:10
4860599 counselinglubbock.com 0 No Rank 2011-12-09 19:38:10
4860600 countdowntoupheaval.com 0 No Rank 2011-12-09 19:38:14
4860601 countriescents.com 0 No Rank 2011-12-09 19:38:15
4860602 old.med.pkv-private-krankenversicherungen.de 0 17476947 2011-12-09 19:38:17
4860603 countrycottagebandb.com 0 No Rank 2011-12-09 19:38:17
4860604 rdchemicals.com 0 960754 2011-12-09 19:38:18
4860605 watchmykidz.com 0 509235 2011-12-09 19:38:22
4860606 couragebuilders.com 0 8125449 2011-12-09 19:38:23
4860607 couponhubby.com 0 9875223 2011-12-09 19:38:25
4860608 courierstandardenterprise.com 0 14932430 2011-12-09 19:38:27
4860609 pressehuette.de 0 No Rank 2011-12-09 19:38:31
4860610 coveredbridgecheeses.com 0 No Rank 2011-12-09 19:38:35
4860611 planetradio.net 0 3075695 2011-12-09 19:38:38
4860612 courthousecommunication.com 0 No Rank 2011-12-09 19:38:39
4860613 callforlife.net 0 11357503 2011-12-09 19:38:41
4860614 cowboyshelpingkids.com 0 No Rank 2011-12-09 19:38:42
4860615 coyotepod.com 0 No Rank 2011-12-09 19:38:45
4860616 cpmb.org 0 16495347 2011-12-09 19:38:49
4860617 elielflores.com 0 No Rank 2011-12-09 19:38:52
4860618 craigburnett.com 0 16204964 2011-12-09 19:38:53
4860619 technogeekette.blogsterdepot.com 0 2976000 2011-12-09 19:39:04
4860620 crazytrial.com 0 No Rank 2011-12-09 19:39:06
4860621 crawleyhockeyclub.com 0 No Rank 2011-12-09 19:39:07
4860622 league-life.com 0 7159569 2011-12-09 19:39:09
4860623 kia-magentis.bamper.org 0 4646357 2011-12-09 19:39:09
4860624 creamysweet.com 0 No Rank 2011-12-09 19:39:09
4860625 unimedfs.com.br 0 5379030 2011-12-09 19:39:12
4860626 creative-living.com 0 11399432 2011-12-09 19:39:17
4860627 creativeadmissiontools.com 0 10466201 2011-12-09 19:39:23
4860628 creativeconceptscelebrates.com 0 23580844 2011-12-09 19:39:24
4860629 creativegeneticsofca.com 0 17282135 2011-12-09 19:39:26
4860630 credibleincomefromhome.com 0 No Rank 2011-12-09 19:39:27
4860631 scrambleguide.com 0 No Rank 2011-12-09 19:39:29
4860632 en.sh-dfysj.com 0 8308005 2011-12-09 19:39:30
4860633 compraenred.com 0 4705131 2011-12-09 19:39:30
4860634 crete-hotels-online.com 0 5856088 2011-12-09 19:39:31
4860635 credifind.com 0 4863870 2011-12-09 19:39:32
4860636 tootsiebell.com 0 22923508 2011-12-09 19:39:34
4860637 a2zukmotors.com 0 No Rank 2011-12-09 19:39:34
4860638 crewstownrealty.com 0 7021411 2011-12-09 19:39:35
4860639 crichotline.com 0 48426 2011-12-09 19:39:38
4860640 crikeysgems.biz 0 No Rank 2011-12-09 19:39:39
4860641 crimsoncast.com 0 8750484 2011-12-09 19:39:43
4860642 croatia-spo.ru 0 No Rank 2011-12-09 19:39:45
4860643 croisieres-madagascar.com 0 No Rank 2011-12-09 19:39:46
4860644 chourouen.or.jp 0 No Rank 2011-12-09 19:39:46
4860645 cromptonslaw.com.fj 0 No Rank 2011-12-09 19:39:47
4860646 schwarzwald.com 0 683194 2011-12-09 19:39:47
4860647 crossfiresacrossamerica.com 0 No Rank 2011-12-09 19:39:50
4860648 bermuda-bea.org 0 25389383 2011-12-09 19:39:51
4860649 crossfireunited.org 0 No Rank 2011-12-09 19:39:52
4860650 old.med.pkv-private-krankenversicherungen.com 0 17476946 2011-12-09 19:39:52
4860651 zonaoriente.com 0 4906344 2011-12-09 19:39:53
4860652 fenderaudio.com 0 No Rank 2011-12-09 19:39:53
4860653 yjmgc.com 0 No Rank 2011-12-09 19:39:55
4860654 dayi-archi.myweb.pkv-vergleicher.com 0 17476948 2011-12-09 19:39:55
4860655 faithstream.net 0 No Rank 2011-12-09 19:39:55
4860656 crossroads-chiropractic.com 0 15320784 2011-12-09 19:39:57
4860657 crossroadsbaptistnc.org 0 No Rank 2011-12-09 19:39:57
4860658 app.praise.org.uk 0 12928049 2011-12-09 19:40:00
4860659 cs-dnet2.at.ua 0 No Rank 2011-12-09 19:40:07
4860660 csecapital.com 0 No Rank 2011-12-09 19:40:11
4860661 campemanuel.com 0 No Rank 2011-12-09 19:40:13
4860662 maxgarage.co.jp 0 6135489 2011-12-09 19:40:14
4860663 forums.aniki.fi 0 183509 2011-12-09 19:40:14
4860664 cscyprus.com 0 No Rank 2011-12-09 19:40:17
4860665 made-in-usa.net 0 1385532 2011-12-09 19:40:19
4860666 antorchaspr.org 0 No Rank 2011-12-09 19:40:19
4860667 ctrehab.com 0 No Rank 2011-12-09 19:40:21
4860668 ctronlineeducation.com 0 No Rank 2011-12-09 19:40:23
4860669 savanttools.com 0 262831 2011-12-09 19:40:23
4860670 prettypurple.nl 0 No Rank 2011-12-09 19:40:25
4860671 timsantrafo.com 0 8345184 2011-12-09 19:40:28
4860672 cubsuk.com 0 24791507 2011-12-09 19:40:31
4860673 cubapordentro.com 0 25922117 2011-12-09 19:40:32
4860674 cuddlesandcradles.com 0 No Rank 2011-12-09 19:40:33
4860675 ezytextbook.com 0 2535706 2011-12-09 19:40:34
4860676 cuginos-hartland.com 0 No Rank 2011-12-09 19:40:34
4860677 ceiswitches.com 0 7576448 2011-12-09 19:40:36
4860678 hot-webcams.com 0 10984076 2011-12-09 19:40:39
4860679 cultureaangan.com 0 3524666 2011-12-09 19:40:40
4860680 the-stjames.com 0 6955135 2011-12-09 19:40:40
4860681 arabotology.org 0 No Rank 2011-12-09 19:40:41
4860682 coastalkayakers.co.nz 0 8501379 2011-12-09 19:40:44
4860683 coastalmensbaseball.com 0 No Rank 2011-12-09 19:40:47
4860684 cocoabeachcondo.net 0 No Rank 2011-12-09 19:40:50
4860685 cobalt-1.ru 0 No Rank 2011-12-09 19:40:50
4860686 dorogadomoj.com 0 1099749 2011-12-09 19:40:51
4860687 cocogreen.com 0 No Rank 2011-12-09 19:40:53
4860688 mistersports.es 0 2328878 2011-12-09 19:40:54
4860689 queasygames.com 0 2462635 2011-12-09 19:40:54
4860690 livemoreint.com 0 2429089 2011-12-09 19:40:55
4860691 codecubicle.com 0 No Rank 2011-12-09 19:40:58
4860692 artsline.org.uk 0 3308796 2011-12-09 19:41:01
4860693 mydiscosite.co.uk 0 No Rank 2011-12-09 19:41:01
4860694 codysamerican.com 0 No Rank 2011-12-09 19:41:02
4860695 codethesis.com 0 12387024 2011-12-09 19:41:04
4860696 malkitsingh.com 0 No Rank 2011-12-09 19:41:09
4860697 coffeenopants.com 0 No Rank 2011-12-09 19:41:10
4860698 pomegranate.com 0 815793 2011-12-09 19:41:11
4860699 curbsideclothing.com 0 12076203 2011-12-09 19:41:13
4860700 myelitepros.com 0 No Rank 2011-12-09 19:41:15
4860701 acesfactory.com 0 No Rank 2011-12-09 19:41:17
4860702 shadedgreen.net 0 No Rank 2011-12-09 19:41:19
4860703 curacaovandaag.nl 0 No Rank 2011-12-09 19:41:19
4860704 curseonline.com 0 No Rank 2011-12-09 19:41:21
4860705 web-tasarim.com 0 No Rank 2011-12-09 19:41:23
4860706 customcaraccessories.org 0 26365829 2011-12-09 19:41:27
4860707 hyundai-h1.bamper.org 0 4646357 2011-12-09 19:41:29
4860708 tvinstallnj.com 0 21165643 2011-12-09 19:41:31
4860709 radiooltenia.ro 0 24919925 2011-12-09 19:41:31
4860710 customcanineunlimited.com 0 8775463 2011-12-09 19:41:32
4860711 customdesignfurnitureinc.com 0 17544902 2011-12-09 19:41:33
4860712 killercards.com 0 No Rank 2011-12-09 19:41:33
4860713 customdigitalslideshow.com 0 No Rank 2011-12-09 19:41:35
4860714 customermonopoly.com 0 No Rank 2011-12-09 19:41:37
4860715 gmowhsmmjpv.com 0 No Rank 2011-12-09 19:41:37
4860716 customtimberworks.com 0 No Rank 2011-12-09 19:41:39
4860717 cutemupent.com 0 No Rank 2011-12-09 19:41:40
4860718 powderpoint8.de 0 No Rank 2011-12-09 19:41:40
4860719 dangcogroup.com 0 10278710 2011-12-09 19:41:44
4860720 cutmyhcadtaxes.com 0 No Rank 2011-12-09 19:41:46
4860721 cutsbysuzy.com 0 No Rank 2011-12-09 19:41:46
4860722 sasknewsnow.com 0 6505473 2011-12-09 19:41:47
4860723 canonsfield.com 0 No Rank 2011-12-09 19:41:47
4860724 cvhs-1952.com 0 No Rank 2011-12-09 19:41:49
4860725 cwa4401.org 0 No Rank 2011-12-09 19:41:50
4860726 greenglancy.com 0 3236172 2011-12-09 19:41:50
4860727 primusverlag.de 0 6421149 2011-12-09 19:41:51
4860728 pachetbrook.com 0 No Rank 2011-12-09 19:41:53
4860729 cwp-eir.com 0 23242643 2011-12-09 19:41:54
4860730 cyberpunker.com 0 No Rank 2011-12-09 19:41:57
4860731 puzzelmaker.net 0 No Rank 2011-12-09 19:41:58
4860732 silverpricepergram.net 0 3911180 2011-12-09 19:41:58
4860733 sophiedonnat.fr 0 No Rank 2011-12-09 19:42:00
4860734 windtower.ca 0 1214979 2011-12-09 19:42:06
4860735 cwcameron.com 0 No Rank 2011-12-09 19:42:06
4860736 cyclecontrol.com 0 14075962 2011-12-09 19:42:07
4860737 cycledesignusa.com 0 No Rank 2011-12-09 19:42:10
4860738 cynamonowydom.info 0 17565728 2011-12-09 19:42:16
4860739 cz-yf.com 0 No Rank 2011-12-09 19:42:20
4860740 d-a-s-h.net 0 25438299 2011-12-09 19:42:26
4860741 daber-kriege.de 0 No Rank 2011-12-09 19:42:27
4860742 daddydrama.com 0 9656745 2011-12-09 19:42:30
4860743 dadlyevangelista.org 0 No Rank 2011-12-09 19:42:34
4860744 beautifulbeaufort.info 0 No Rank 2011-12-09 19:42:35
4860745 daggettgymnastics.com 0 No Rank 2011-12-09 19:42:37
4860746 dagazine.com 0 No Rank 2011-12-09 19:42:37
4860747 kenorachamber.com 0 11165156 2011-12-09 19:42:38
4860748 dajank.com 0 No Rank 2011-12-09 19:42:41
4860749 dalita.am 0 4278202 2011-12-09 19:42:46
4860750 dalyfenceny.com 0 No Rank 2011-12-09 19:42:49
4860751 dampcoursing.com 0 No Rank 2011-12-09 19:42:52
4860752 danabryson.com 0 No Rank 2011-12-09 19:42:56
4860753 dance-system.com 0 No Rank 2011-12-09 19:43:00
4860754 dancingfingersstudio.com 0 No Rank 2011-12-09 19:43:03
4860755 dalamansatilikvilla.com 0 27864505 2011-12-09 19:43:03
4860756 daneschofield.com 0 No Rank 2011-12-09 19:43:10
4860757 dancingwithlifebodywork.com 0 No Rank 2011-12-09 19:43:13
4860758 dansamson.com 0 No Rank 2011-12-09 19:43:14
4860759 dansin.se 0 6112588 2011-12-09 19:43:17
4860760 mvmovie.blogspot.com 0 No Rank 2011-12-09 19:43:18
4860761 danstango.com 0 20436956 2011-12-09 19:43:18
4860762 danvillefitnessfactory.com 0 No Rank 2011-12-09 19:43:20
4860763 darby.hu 0 21584945 2011-12-09 19:43:24
4860764 darkerthanpale.com 0 No Rank 2011-12-09 19:43:25
4860765 daro.ru 0 11160663 2011-12-09 19:43:32
4860766 dashboardrestorations.co.nz 0 No Rank 2011-12-09 19:43:39
4860767 daszelt.ch 0 1336829 2011-12-09 19:43:44
4860768 nalchik.povodok.net 0 6338046 2011-12-09 19:43:46
4860769 das-ende-des-kreises.de 0 No Rank 2011-12-09 19:43:48
4860770 dateanaturist.com 0 9083281 2011-12-09 19:43:48
4860771 datedisabled.com 0 4570810 2011-12-09 19:43:52
4860772 davealbee.com 0 No Rank 2011-12-09 19:43:54
4860773 davemcloughlin.com 0 No Rank 2011-12-09 19:43:55
4860774 daventurewebtech.com 0 20289061 2011-12-09 19:43:59
4860775 davepoynter.com 0 No Rank 2011-12-09 19:43:59
4860776 david-fletcher.com 0 No Rank 2011-12-09 19:44:04
4860777 david-assurances.fr 0 22212847 2011-12-09 19:44:04
4860778 hall-five.com 0 2225316 2011-12-09 19:44:08
4860779 davidbrayshaw.com 0 No Rank 2011-12-09 19:44:13
4860780 davidgentryphotography.com 0 No Rank 2011-12-09 19:44:14
4860781 davidklepacki.com 0 No Rank 2011-12-09 19:44:16
4860782 davidksheesley.com 0 No Rank 2011-12-09 19:44:19
4860783 davidsalaska.com 0 No Rank 2011-12-09 19:44:22
4860784 davidosbornemusic.com 0 25870882 2011-12-09 19:44:23
4860785 davidstaffordrealty.com 0 No Rank 2011-12-09 19:44:25
4860786 ow.com.vn 0 28110657 2011-12-09 19:44:26
4860787 dawn-breaking.com 0 3124562 2011-12-09 19:44:30
4860788 dayannoomise.com 0 No Rank 2011-12-09 19:44:34
4860789 dawnschaffer.com 0 18477377 2011-12-09 19:44:35
4860790 dg.com.vn 0 25614347 2011-12-09 19:44:36
4860791 lv.com.vn 0 3861280 2011-12-09 19:44:39
4860792 vingeren530.chat2sexs.info 0 No Rank 2011-12-09 19:44:41
4860793 dcabda.org 0 13621364 2011-12-09 19:44:42
4860794 dcar.lv 0 No Rank 2011-12-09 19:44:47
4860795 dcswiki.org 0 No Rank 2011-12-09 19:44:49
4860796 diaoc12h.vn 0 No Rank 2011-12-09 19:44:51
4860797 dctravel.com 0 9654515 2011-12-09 19:44:53
4860798 bellvn.com 0 No Rank 2011-12-09 19:44:54
4860799 petnames.net 0 500339 2011-12-09 19:44:57
4860800 dcc82ndairborne.com 0 No Rank 2011-12-09 19:44:58
4860801 deanburge.com 0 No Rank 2011-12-09 19:45:00
4860802 beastbot.com 0 No Rank 2011-12-09 19:45:00
4860803 deancasavechia.com 0 4048978 2011-12-09 19:45:02
4860804 gamelair.com 0 1751031 2011-12-09 19:45:03
4860805 deconcrete.org 0 859791 2011-12-09 19:45:06
4860806 decoracoesparreira.com 0 No Rank 2011-12-09 19:45:11
4860807 66.com.vn 0 19594291 2011-12-09 19:45:12
4860808 dogbreeds.net 0 1854015 2011-12-09 19:45:14
4860809 dedicateddogtrainingblog.com 0 No Rank 2011-12-09 19:45:14
4860810 ytetunghi.com 0 No Rank 2011-12-09 19:45:16
4860811 seanpyerz.com 0 No Rank 2011-12-09 19:45:17
4860812 degeltruckcenter.com 0 20393185 2011-12-09 19:45:19
4860813 yikaoyuan.com 0 No Rank 2011-12-09 19:45:23
4860814 healthmedplus.com 0 5355367 2011-12-09 19:45:24
4860815 teka.sddn.com 0 No Rank 2011-12-09 19:45:25
4860816 degranjapan.com 0 No Rank 2011-12-09 19:45:29
4860817 slack-line.com 0 No Rank 2011-12-09 19:45:30
4860818 degreeinnashville.com 0 No Rank 2011-12-09 19:45:32
4860819 ecatbreeds.com 0 24586595 2011-12-09 19:45:33
4860820 deidreshairstudio.com 0 10525623 2011-12-09 19:45:37
4860821 degreauction.com 0 20236899 2011-12-09 19:45:38
4860822 joeandpatty.com 0 No Rank 2011-12-09 19:45:42
4860823 raleighfencecontractors.com 0 16410319 2011-12-09 19:45:42
4860824 delawareinteriordesigning.com 0 14597393 2011-12-09 19:45:44
4860825 systemkleen.com 0 14872067 2011-12-09 19:45:44
4860826 delawareohrealestate.com 0 3157387 2011-12-09 19:45:50
4860827 cuteanimals.net 0 22483950 2011-12-09 19:45:51
4860828 delhi-escort-service.com 0 No Rank 2011-12-09 19:45:52
4860829 mayinsonkha.com 0 No Rank 2011-12-09 19:45:53
4860830 nhacviet.pkv-private-krankenversicherungen.de 0 17476947 2011-12-09 19:45:53
4860831 skinnytinis.com 0 No Rank 2011-12-09 19:45:55
4860832 dellenalaw.com 0 No Rank 2011-12-09 19:45:56
4860833 kittennames.com 0 1240524 2011-12-09 19:45:58
4860834 digitalseo.info 0 1435391 2011-12-09 19:46:00
4860835 piratenames.net 0 2131173 2011-12-09 19:46:01
4860836 bmwwallpaper.net 0 13781127 2011-12-09 19:46:04
4860837 hangbanbuon.com 0 7984046 2011-12-09 19:46:07
4860838 deltahomeseeker.ca 0 No Rank 2011-12-09 19:46:07
4860839 ns784.abcname.net 0 393928 2011-12-09 19:46:07
4860840 funhorsenames.com 0 969478 2011-12-09 19:46:09
4860841 thechurchatrb.org 0 4070456 2011-12-09 19:46:11
4860842 deltakitchenfaucet.net 0 3695824 2011-12-09 19:46:12
4860843 crb.netfinity.net 0 1709326 2011-12-09 19:46:13
4860844 idocdentallab.com 0 No Rank 2011-12-09 19:46:15
4860845 deniseschipani.com 0 3733472 2011-12-09 19:46:15
4860846 coolboatnames.com 0 2767923 2011-12-09 19:46:15
4860847 diaoc12h.com.vn 0 27604598 2011-12-09 19:46:19
4860848 dental-ishihara.com 0 No Rank 2011-12-09 19:46:19
4860849 aecp.netfinity.net 0 1709326 2011-12-09 19:46:20
4860850 bobssuperclean.com 0 No Rank 2011-12-09 19:46:21
4860851 shariahprogram.net 0 No Rank 2011-12-09 19:46:21
4860852 dentalnestudio.sk 0 No Rank 2011-12-09 19:46:24
4860853 digicam-sales.info 0 No Rank 2011-12-09 19:46:25
4860854 designsbyteale.com 0 No Rank 2011-12-09 19:46:27
4860855 actionpowervac.com 0 No Rank 2011-12-09 19:46:29
4860856 dentalspa.com.pl 0 9364151 2011-12-09 19:46:29
4860857 thienhanhmedic.com 0 25932180 2011-12-09 19:46:32
4860858 slacklinexpress.com 0 No Rank 2011-12-09 19:46:34
4860859 kustercavaliers.com 0 12132604 2011-12-09 19:46:34
4860860 deph.org 0 No Rank 2011-12-09 19:46:35
4860861 monkeydownloads.com 0 No Rank 2011-12-09 19:46:37
4860862 bklighting.sddn.com 0 No Rank 2011-12-09 19:46:38
4860863 der-schutzengel.com 0 No Rank 2011-12-09 19:46:40
4860864 smoothierecipes.net 0 8264882 2011-12-09 19:46:41
4860865 derbycitychorus.com 0 No Rank 2011-12-09 19:46:43
4860866 mustangwallpaper.net 0 8245063 2011-12-09 19:46:43
4860867 hungphatdoor.com.vn 0 No Rank 2011-12-09 19:46:44
4860868 deliciousrecipes.com 0 25909861 2011-12-09 19:46:46
4860869 dercofoods.com 0 No Rank 2011-12-09 19:46:46
4860870 m150.photobucket.com 0 143 2011-12-09 19:46:47
4860871 s508.photobucket.com 0 143 2011-12-09 19:46:47
4860872 m151.photobucket.com 0 143 2011-12-09 19:46:48
4860873 dereksutton.com 0 No Rank 2011-12-09 19:46:49
4860874 s155.photobucket.com 0 143 2011-12-09 19:46:50
4860875 s153.photobucket.com 0 143 2011-12-09 19:46:51
4860876 m149.photobucket.com 0 143 2011-12-09 19:46:52
4860877 s511.photobucket.com 0 143 2011-12-09 19:46:53
4860878 mortensenmemoirs.com 0 No Rank 2011-12-09 19:46:53
4860879 derjilfond.ru 0 No Rank 2011-12-09 19:46:54
4860880 s151.photobucket.com 0 143 2011-12-09 19:46:55
4860881 s510.photobucket.com 0 143 2011-12-09 19:46:57
4860882 tekaillumination.com 0 12521353 2011-12-09 19:46:57
4860883 raybanwayfarer.biz 0 No Rank 2011-12-09 19:46:58
4860884 teka-illumination.com 0 No Rank 2011-12-09 19:46:59
4860885 gazetazyrtare.com 0 2894523 2011-12-09 19:47:00
4860886 m152.photobucket.com 0 143 2011-12-09 19:47:00
4860887 learnarabiconline.com 0 649392 2011-12-09 19:47:02
4860888 dervistone.com 0 No Rank 2011-12-09 19:47:02
4860889 gs155.photobucket.com 0 143 2011-12-09 19:47:02
4860890 gs149.photobucket.com 0 143 2011-12-09 19:47:05
4860891 gs153.photobucket.com 0 143 2011-12-09 19:47:06
4860892 bbs.private-krankenversicherung-profis.de 0 17476954 2011-12-09 19:47:10
4860893 des-klare.de 0 No Rank 2011-12-09 19:47:12
4860894 desertnanny.net 0 15528056 2011-12-09 19:47:15
4860895 khonggiancomputer.com 0 No Rank 2011-12-09 19:47:18
4860896 gs152.photobucket.com 0 143 2011-12-09 19:47:19
4860897 design-biokrby.sk 0 1596804 2011-12-09 19:47:22
4860898 gs154.photobucket.com 0 143 2011-12-09 19:47:22
4860899 slackline-express.com 0 No Rank 2011-12-09 19:47:23
4860900 gs151.photobucket.com 0 143 2011-12-09 19:47:23
4860901 designbysteve.com 0 No Rank 2011-12-09 19:47:25
4860902 gs148.photobucket.com 0 143 2011-12-09 19:47:27
4860903 desireebates.com 0 No Rank 2011-12-09 19:47:27
4860904 getcorporatehealth.com 0 No Rank 2011-12-09 19:47:27
4860905 spencers.netfinity.net 0 1709326 2011-12-09 19:47:30
4860906 justfamilystickers.com 0 No Rank 2011-12-09 19:47:33
4860907 gs150.photobucket.com 0 143 2011-12-09 19:47:33
4860908 desiwriterslounge.net 0 6063316 2011-12-09 19:47:39
4860909 propertyenterprises.com 0 No Rank 2011-12-09 19:47:40
4860910 dogwoodtrailskennel.com 0 25064547 2011-12-09 19:47:41
4860911 tradespot.netfinity.net 0 1709326 2011-12-09 19:47:43
4860912 sandstone.netfinity.net 0 1709326 2011-12-09 19:47:44
4860913 candybouquetfactory.com 0 13789790 2011-12-09 19:47:46
4860914 lamborghiniwallpaper.net 0 15697404 2011-12-09 19:47:48
4860915 augustinedesigngroup.com 0 798074 2011-12-09 19:47:49
4860916 privateisland.jessoner.com 0 4927839 2011-12-09 19:47:50
4860917 mothermaker.com 0 No Rank 2011-12-09 19:47:52
4860918 desprecaini.com 0 4864268 2011-12-09 19:47:53
4860919 chewychocolatechipcookierecipes.com 0 No Rank 2011-12-09 19:47:56
4860920 teenim.com 0 555569 2011-12-09 19:47:56
4860921 destin1120am.com 0 No Rank 2011-12-09 19:47:57
4860922 homebyrequest.com 0 3084657 2011-12-09 19:47:58
4860923 wegroo.com 0 3938246 2011-12-09 19:47:58
4860924 srooli.com 0 No Rank 2011-12-09 19:47:59
4860925 miguelito.de 0 No Rank 2011-12-09 19:48:01
4860926 stahlband.de 0 20278157 2011-12-09 19:48:02
4860927 destinysphere.net 0 No Rank 2011-12-09 19:48:03
4860928 hoelper.info 0 No Rank 2011-12-09 19:48:03
4860929 stang-edv.de 0 No Rank 2011-12-09 19:48:06
4860930 sikster.com 0 334797 2011-12-09 19:48:06
4860931 detective27.com 0 No Rank 2011-12-09 19:48:11
4860932 bisswurm.com 0 No Rank 2011-12-09 19:48:12
4860933 hi-design.de 0 12268749 2011-12-09 19:48:12
4860934 detectivesmujeres.com 0 18672855 2011-12-09 19:48:14
4860935 plyomania.com 0 No Rank 2011-12-09 19:48:16
4860936 bebesetpuericulture.com 0 No Rank 2011-12-09 19:48:17
4860937 oberhummer.de 0 No Rank 2011-12-09 19:48:18
4860938 schlesiger.de 0 No Rank 2011-12-09 19:48:18
4860939 benno-haus.de 0 11158966 2011-12-09 19:48:19
4860940 scuba-comp.de 0 No Rank 2011-12-09 19:48:19
4860941 nhacviet.pkv-private-krankenversicherungen.com 0 17476946 2011-12-09 19:48:19
4860942 gold-weiss.de 0 19043621 2011-12-09 19:48:20
4860943 topsearches.in 0 132491 2011-12-09 19:48:22
4860944 stahlhammer.de 0 20905985 2011-12-09 19:48:23
4860945 devostea.com 0 7557143 2011-12-09 19:48:23
4860946 tilman-home.de 0 16736687 2011-12-09 19:48:24
4860947 dewakar.com 0 5786515 2011-12-09 19:48:28
4860948 hebeldesign.de 0 No Rank 2011-12-09 19:48:29
4860949 bbs.pkv-private-krankenversicherungen.de 0 17476947 2011-12-09 19:48:30
4860950 dewbrelaw.com 0 11804654 2011-12-09 19:48:30
4860951 martinmeier.de 0 No Rank 2011-12-09 19:48:30
4860952 toptenpost.com 0 511613 2011-12-09 19:48:31
4860953 thetalogic.net 0 No Rank 2011-12-09 19:48:33
4860954 dewittcompany.com 0 10315135 2011-12-09 19:48:33
4860955 rmt-bank.co.jp 0 No Rank 2011-12-09 19:48:37
4860956 selebwedding.jp 0 No Rank 2011-12-09 19:48:37
4860957 refahbroker.com 0 4193249 2011-12-09 19:48:41
4860958 dfoodsintl.com 0 No Rank 2011-12-09 19:48:43
4860959 dhruvtarachemicals.com 0 No Rank 2011-12-09 19:48:47
4860960 movieslider.com 0 11800931 2011-12-09 19:48:49
4860961 trailercabinets.org 0 17386293 2011-12-09 19:48:52
4860962 dialadeck.com 0 4233420 2011-12-09 19:48:55
4860963 robojukebox.com 0 22919831 2011-12-09 19:48:56
4860964 peniskapseln.de 0 24992505 2011-12-09 19:48:56
4860965 strandnelke.com 0 16241501 2011-12-09 19:48:59
4860966 konecteco.co.uk 0 9334085 2011-12-09 19:49:00
4860967 yesvvt.q88f.net 0 1388403 2011-12-09 19:49:06
4860968 dialogservices.co.in 0 8559350 2011-12-09 19:49:06
4860969 technifacts.com 0 No Rank 2011-12-09 19:49:08
4860970 ius-sapienza.it 0 1702333 2011-12-09 19:49:10
4860971 diamondballroomanddance.com 0 No Rank 2011-12-09 19:49:15
4860972 mightylib.researchertech.livejournal.com 0 100 2011-12-09 19:49:19
4860973 diamondtreeexperts.com 0 10420014 2011-12-09 19:49:21
4860974 dianaherrera.com 0 12000871 2011-12-09 19:49:23
4860975 durabond.com.au 0 No Rank 2011-12-09 19:49:25
4860976 diegolucero.com 0 19637685 2011-12-09 19:49:28
4860977 sccoe.k12.ca.us 0 5306 2011-12-09 19:49:36
4860978 homedelivery.gr 0 1268818 2011-12-09 19:49:37
4860979 diehoorn.co.za 0 999532 2011-12-09 19:49:38
4860980 frilinghoven.de 0 No Rank 2011-12-09 19:49:40
4860981 diet-kirei24.net 0 No Rank 2011-12-09 19:49:41
4860982 estopsnoring.com 0 6425640 2011-12-09 19:49:43
4860983 indigofilms.com 0 6482735 2011-12-09 19:49:45
4860984 dietfreeweightlossplan.com 0 No Rank 2011-12-09 19:49:47
4860985 aranytarsoly.hu 0 No Rank 2011-12-09 19:49:49
4860986 digisense.ca 0 No Rank 2011-12-09 19:49:53
4860987 thaishipper.com 0 3176887 2011-12-09 19:49:54
4860988 photographr.net 0 No Rank 2011-12-09 19:50:01
4860989 digitalnow.com 0 8345561 2011-12-09 19:50:01
4860990 sergioforex.com 0 1938214 2011-12-09 19:50:05
4860991 china-gb-bz.com 0 8319580 2011-12-09 19:50:13
4860992 davidzachry.com 0 No Rank 2011-12-09 19:50:14
4860993 digitalphotographydepartment.com 0 2893033 2011-12-09 19:50:18
4860994 jv-concordia.de 0 No Rank 2011-12-09 19:50:18
4860995 babcockapps.com 0 No Rank 2011-12-09 19:50:19
4860996 bonjourpola.com 0 15193817 2011-12-09 19:50:20
4860997 dekalbhomesearch.com 0 5030786 2011-12-09 19:50:21
4860998 cigarpalace.com 0 No Rank 2011-12-09 19:50:22
4860999 forever-ots.com 0 738456 2011-12-09 19:50:24